Regional Weather Roundup
Issued by NWS Burlington, VT

Home | Current Version | Previous Version | Text Only | Print | Product List | Glossary On
Versions: 1 2 3 4 5 6 7 8 9 10 11 12 13 14 15 16 17 18 19 20 21 22 23 24 25 26 27 28 29 30 31 32 33 34 35 36 37 38 39 40 41 42 43 44 45 46 47 48 49 50
000
ASUS41 KBTV 290330
RWRBTV
VERMONT REGIONAL WEATHER ROUNDUP
NATIONAL WEATHER SERVICE BURLINGTON VT
1100 PM EDT MON JUL 28 2014

NOTE: "FAIR" INDICATES FEW OR NO CLOUDS BELOW 12,000 FEET WITH NO
SIGNIFICANT WEATHER AND/OR OBSTRUCTIONS TO VISIBILITY.

* THESE REPORTS ARE NOT UNDER NWS QUALITY CONTROL AND/OR DO NOT
  REPORT WEATHER SUCH AS PRECIPITATION AND FOG.

VTZ001>019-290400-
_____VERMONT_____


CITY           SKY/WX    TMP DP  RH WIND       PRES   REMARKS
BURLINGTON     LGT RAIN  60  57  89 NW16G25   29.64R
MONTPELIER     CLOUDY    58  57  97 NW8       29.64S
MORRISVILLE    CLOUDY    60  57  89 NW7       29.62R
ST. JOHNSBURY*   N/A     62  56  80 MISG      29.54R
LYNDONVILLE*     N/A    N/A N/A N/A MISG        N/A
MIDDLEBURY*    CLOUDY    59  59 100 NW8G16    29.64R
RUTLAND*       CLOUDY    59  55  88 NW13G23   29.63R
SPRINGFIELD    CLOUDY    62  59  90 VRB3      29.59R
HIGHGATE*      LGT RAIN  57  56  94 NW3       29.64R
NEWPORT*       DRIZZLE  N/A N/A N/A NW7G17    29.60R
BENNINGTON     LGT RAIN  61  58  90 VRB5      29.66R FOG
SUTTON*          N/A     57 N/A N/A MISG        N/A
MT. MANSFIELD*   N/A     50 N/A N/A NW18G32     N/A

_____LAKE CHAMPLAIN_____


CITY           SKY/WX    TMP DP  RH WIND       PRES   REMARKS
COLCHESTER RF*   N/A     61  59  94 N24         N/A
DIAMOND ISL*     N/A     61  55  82 NW15        N/A

$$

NYZ007-026>031-035-052-083-290400-
_____NORTHERN NEW YORK_____


CITY           SKY/WX    TMP DP  RH WIND       PRES   REMARKS
PLATTSBURGH    CLOUDY    59  56  89 NW10      29.65R
SARANAC LAKE   CLOUDY    54  53  97 VRB3      29.71R FOG
MASSENA        CLOUDY    61  54  77 NW7       29.72R
OGDENSBURG*    PTCLDY    59  54  82 NW5       29.74S
POTSDAM*       CLOUDY    57  57 100 W3        29.73S
WATERTOWN      CLOUDY    60  52  74 W5        29.77S
FT DRUM        CLOUDY    58  58 100 W5        29.76S
ALBANY         LGT RAIN  62  59  90 W14       29.67R FOG
GLENS FALLS    LGT RAIN  63  58  83 NW7       29.64R

$$
NHZ002-005-011-290400-
_____NEW HAMPSHIRE_____


CITY           SKY/WX    TMP DP  RH WIND       PRES   REMARKS
LEBANON        CLOUDY    64  58  80 N9        29.58R
KEENE          MOCLDY    64  54  68 NW5       29.58R
MT WASHINGTON  LGT RAIN  48  48 100 W21         N/A  VSB 0
PLYMOUTH       MOCLDY    65  61  87 W12G18    29.53R
WHITEFIELD     HVY RAIN  62  58  86 W10       29.55R FOG

$$

_____REGIONAL QUEBEC LOCATIONS_____


CITY           SKY/WX    TMP DP  RH WIND       PRES   REMARKS
MONTREAL       DRIZZLE   61  57  88 W8        29.67R
QUEBEC CITY    SHOWER    59  57  94 N12G20    29.55F FOG
SHERBROOKE     LGT RAIN  57  55  94 W6        29.55R FOG

_____REGIONAL ONTARIO LOCATIONS_____


CITY           SKY/WX    TMP DP  RH WIND       PRES   REMARKS
OTTAWA         PTCLDY    57  52  82 W8        29.75R

______KEY______
VSB  - VISIBILITY IN MILES
WCI  - WIND CHILL INDEX
HX   - HEAT INDEX
$$



USA.gov is the U.S. government's official web portal to all federal, state and local government web resources and services.